Location: ActonStarParty
(42.4766°N, 71.4538°W)
Time: 10:10:59
(UTC-04:00)

Amateur Radio Satellites - All Passes

Search period start: 27 May 2016 09:40
Search period end: 28 May 2016 09:40
Location: ActonStarParty, 42.4766°N, 71.4538°W

Satellite Date Start Highest point End Downlink Frequencies (MHz)
Time Altitude Azimuth
UWE-3 27 May 09:46:39 09:50:47 62° 101° (E) 09:54:59 435.000/436.395/437.385
PCSat 27 May 09:49:51 09:55:09 59° 115° (ESE) 10:00:30 145.827
FUNcube-1 27 May 09:52:18 09:56:19 44° 99° (E) 10:00:22 145.935
SO-50 27 May 09:52:51 09:57:28 58° 241° (WSW) 10:01:55 436.795
DELFI C3 27 May 10:00:25 10:04:01 30° 96° (E) 10:07:35 145.870
CINEMA 3 27 May 10:01:43 10:04:47 20° 294° (WNW) 10:07:50 145.822/145.860
CANX-2 27 May 10:08:43 10:11:26 17° 295° (WNW) 10:14:09 2200.000
ANTELSAT 27 May 10:09:54 10:14:15 71° 75° (ENE) 10:18:32 437.575/2403.000
O/OREOS (USA 219) 27 May 10:11:33 10:16:04 62° 295° (WNW) 10:20:35 437.305
SEEDS 27 May 10:11:56 10:15:14 22° 293° (WNW) 10:18:32 437.485
DUCHIFAT 1 27 May 10:19:19 10:21:49 15° 64° (ENE) 10:24:18 145.980
BEESAT 3 27 May 10:32:13 10:32:40 10° 108° (ESE) 10:33:07 437.485
Oscar 11 27 May 10:36:49 10:41:00 49° 288° (WNW) 10:45:11 145.826/435.025
BUGSAT 1 27 May 10:40:13 10:42:00 13° 62° (ENE) 10:43:46 437.445
CUSAT 1 27 May 10:47:16 10:52:14 24° 81° (E) 10:57:53 437.405
ZACube-1 27 May 10:50:14 10:54:07 38° 289° (WNW) 10:58:03 437.345
CUBEBUG 2 27 May 10:54:36 10:57:23 17° 294° (WNW) 11:00:09 437.445
JAS-2 27 May 10:54:37 10:59:11 17° 53° (NE) 11:03:52 435.910
POPSAT HIP 1 27 May 10:55:13 10:59:10 39° 71° (ENE) 11:03:07 437.405
QB50P1 27 May 10:55:38 10:59:36 40° 71° (ENE) 11:03:35 145.935-145.965
QB50P2 27 May 10:57:41 11:01:44 45° 72° (ENE) 11:05:48 145.880/145.840
POLYITAN 1 27 May 11:00:09 11:04:12 46° 72° (ENE) 11:08:15 437.675
COMPASS 1 27 May 11:01:24 11:01:53 10° 299° (WNW) 11:02:23 437.405
HUMSAT D 27 May 11:02:06 11:06:16 70° 102° (ESE) 11:10:27 437.325/437.525
GONETS M04 27 May 11:02:21 11:08:59 25° 280° (W) 11:15:37
AAUSAT CUBESAT 2 27 May 11:03:30 11:04:56 12° 298° (WNW) 11:06:23 437.432
UNISAT 6 27 May 11:05:59 11:09:46 28° 264° (W) 11:13:32 437.425
TIGRISAT 27 May 11:13:54 11:17:31 25° 265° (W) 11:21:06 435.000
NANOSAT C BR1 27 May 11:14:05 11:18:16 62° 74° (ENE) 11:22:27 145.865
Cosmos 2499 27 May 11:14:23 11:21:47 34° 276° (W) 11:29:24 435.465 / 435.565
HO-68 27 May 11:16:58 11:21:02 16° 308° (NW) 11:25:07 435.675
UWE-3 27 May 11:25:00 11:26:46 13° 297° (WNW) 11:28:34 435.000/436.395/437.385
FUNcube-1 27 May 11:29:33 11:32:14 17° 295° (WNW) 11:34:57 145.935
BEESAT 2 27 May 11:30:57 11:34:18 27° 114° (ESE) 11:37:41 435.950
PCSat 27 May 11:34:33 11:38:56 24° 315° (NW) 11:43:21 145.827
DELFI C3 27 May 11:35:36 11:38:44 22° 292° (WNW) 11:41:50 145.870
AISAT 27 May 11:35:46 11:39:05 21° 94° (E) 11:42:23 437.250
UKube-1 27 May 11:46:21 11:49:10 17° 93° (E) 11:51:58 .
ANTELSAT 27 May 11:50:38 11:51:25 10° 271° (W) 11:52:12 437.575/2403.000
DUCHIFAT 1 27 May 11:53:01 11:57:07 50° 260° (W) 12:01:14 145.980
BEESAT 3 27 May 12:05:50 12:09:46 72° 304° (NW) 12:13:43 437.485
ESTCUBE 1 27 May 12:11:29 12:16:03 72° 102° (ESE) 12:20:34 437.505/2401.250
BUGSAT 1 27 May 12:12:41 12:16:51 64° 258° (WSW) 12:21:01 437.445
DANDE 27 May 12:18:22 12:23:38 54° 92° (E) 12:30:32 436.750
50 SAT 27 May 12:19:14 12:22:58 71° 102° (ESE) 12:26:41 437.505
Oscar 19 27 May 12:20:04 12:24:16 26° 65° (ENE) 12:28:29 437.125/150
CUSAT 1 27 May 12:27:09 12:33:27 67° 284° (WNW) 12:41:10 437.405
CUBEBUG 1 27 May 12:29:19 12:33:43 78° 102° (ESE) 12:38:04 437.445
DX 1 27 May 12:31:12 12:35:34 64° 102° (ESE) 12:39:51 434.975-435.025
POPSAT HIP 1 27 May 12:32:10 12:35:06 18° 267° (W) 12:38:03 437.405
QB50P1 27 May 12:32:41 12:35:33 18° 267° (W) 12:38:26 145.935-145.965
QB50P2 27 May 12:35:09 12:37:46 16° 268° (W) 12:40:24 145.880/145.840
VELOX 1 27 May 12:35:15 12:39:42 85° 101° (E) 12:44:07 145.980
JAS-2 27 May 12:35:30 12:42:49 74° 72° (ENE) 12:50:41 435.910
POLYITAN 1 27 May 12:37:41 12:40:14 15° 268° (W) 12:42:48 437.675
HUMSAT D 27 May 12:40:00 12:41:20 11° 298° (WNW) 12:42:41 437.325/437.525
Gurwin Techsat 1B 27 May 12:40:46 12:44:13 18° 61° (ENE) 12:47:40 435.225
NANOSAT C BR1 27 May 12:52:59 12:54:24 11° 270° (W) 12:55:48 145.865
AO-7 27 May 12:57:09 12:59:56 12° 41° (NE) 13:02:43 29.400- 29.500
SPROUT 27 May 12:58:01 13:02:15 62° 101° (E) 13:06:26 437.525
ITAMSAT 1 27 May 13:04:00 13:05:30 11° 56° (ENE) 13:07:01 435.822/435.867
BEESAT 2 27 May 13:08:33 13:12:05 30° 312° (NW) 13:15:37 435.950
AISAT 27 May 13:11:36 13:15:42 37° 290° (WNW) 13:19:45 437.250
UKube-1 27 May 13:21:19 13:25:26 44° 289° (WNW) 13:29:32 .
TISAT 1 27 May 13:23:44 13:27:29 31° 97° (E) 13:31:12 437.305
AIST 2 27 May 13:37:05 13:40:54 37° 116° (ESE) 13:44:44 435.215
AO-85 27 May 13:39:20 13:42:43 19° 38° (NE) 13:45:54 145.980
BEESAT 3 27 May 13:47:14 13:48:12 11° 324° (NW) 13:49:08 437.485
ESTCUBE 1 27 May 13:50:11 13:52:15 13° 299° (WNW) 13:54:20 437.505/2401.250
SWISSCUBE 27 May 13:57:03 14:00:02 16° 91° (E) 14:03:03 437.505
Oscar 19 27 May 13:58:26 14:03:21 42° 261° (W) 14:08:18 437.125/150
DANDE 27 May 14:02:18 14:07:06 26° 298° (WNW) 14:12:57 436.750
ITUPSAT 1 27 May 14:02:59 14:06:02 17° 92° (E) 14:09:06 437.325
CUBEBUG 1 27 May 14:08:00 14:09:22 11° 300° (WNW) 14:10:42 437.445
DX 1 27 May 14:09:07 14:11:13 13° 299° (WNW) 14:13:18 434.975-435.025
CUSAT 1 27 May 14:13:53 14:17:23 14° 307° (NW) 14:21:07 437.405
VELOX 1 27 May 14:14:34 14:15:29 11° 301° (WNW) 14:16:22 145.980
Gurwin Techsat 1B 27 May 14:18:20 14:23:37 67° 258° (WSW) 14:28:55 435.225
Cosmos 2491 27 May 14:18:56 14:26:42 34° 69° (ENE) 14:34:21 435.465 / 435.565
JAS-2 27 May 14:22:51 14:28:31 24° 272° (W) 14:34:30 435.910
BEESAT 27 May 14:25:55 14:30:04 29° 96° (E) 14:34:11 436.000
YUBILEINY 27 May 14:26:08 14:29:04 12° 72° (ENE) 14:31:58 435.215
SPROUT 27 May 14:35:42 14:37:41 13° 298° (WNW) 14:39:39 437.525
ITAMSAT 1 27 May 14:38:56 14:44:06 79° 74° (ENE) 14:49:18 435.822/435.867
AO-7 27 May 14:42:52 14:50:43 50° 63° (ENE) 14:58:37 29.400- 29.500
TISAT 1 27 May 14:59:43 15:02:58 22° 293° (WNW) 15:06:13 437.305
AIST 2 27 May 15:16:05 15:19:29 24° 314° (NW) 15:22:54 435.215
AO-85 27 May 15:19:06 15:23:46 70° 240° (WSW) 15:27:59 145.980
KKS-1 27 May 15:26:48 15:29:15 14° 91° (E) 15:31:41 437.445
SWISSCUBE 27 May 15:33:29 15:38:11 55° 288° (WNW) 15:42:51 437.505
RS-15 27 May 15:37:26 15:44:23 19° 97° (E) 15:51:29 29.354- 29.394
ITUPSAT 1 27 May 15:39:31 15:44:12 55° 288° (WNW) 15:48:54 437.325
MOZHAYETS 4 27 May 15:40:01 15:42:56 16° 91° (E) 15:45:50
HORYU 2 27 May 15:51:16 15:54:56 26° 67° (ENE) 15:58:37 437.375
STARS 27 May 16:02:40 16:05:39 18° 93° (E) 16:08:37 437.465
BEESAT 27 May 16:03:36 16:07:49 32° 292° (WNW) 16:12:02 436.000
Cosmos 2491 27 May 16:15:27 16:23:55 56° 270° (W) 16:32:19 435.465 / 435.565
YUBILEINY 27 May 16:15:29 16:24:03 68° 93° (E) 16:32:40 435.215
ITAMSAT 1 27 May 16:22:00 16:24:10 13° 271° (W) 16:26:21 435.822/435.867
AO-7 27 May 16:36:00 16:43:36 39° 262° (W) 16:51:17 29.400- 29.500
PCSat 27 May 16:55:41 16:57:43 12° 34° (NE) 16:59:44 145.827
KKS-1 27 May 17:01:49 17:06:09 54° 287° (WNW) 17:10:27 437.445
NOAA 15 27 May 17:02:19 17:06:54 30° 66° (ENE) 17:11:29 137.62
NOAA 18 27 May 17:03:38 17:08:12 28° 64° (ENE) 17:12:46 137.9125
CUBESAT XI-V 27 May 17:05:00 17:07:42 15° 90° (E) 17:10:22 437.345
LilacSat-2 27 May 17:06:28 17:08:19 13° 65° (ENE) 17:10:10 437.200
Cubesat XI-IV 27 May 17:07:05 17:11:12 23° 63° (ENE) 17:15:20 437.490
MOZHAYETS 4 27 May 17:15:53 17:20:23 52° 288° (WNW) 17:24:53
Cosmos 2504 27 May 17:24:10 17:31:03 51° 90° (E) 17:38:19 435.465 / 435.565
HORYU 2 27 May 17:27:31 17:31:23 30° 263° (W) 17:35:18 437.375
STARS 27 May 17:38:04 17:42:12 42° 289° (WNW) 17:46:19 437.465
BRITE-PL 27 May 17:38:49 17:44:14 49° 71° (ENE) 17:49:42 437.365/2234.400
RS-15 27 May 17:43:21 17:54:37 78° 119° (ESE) 18:06:37 29.354- 29.394
CUTE-I 27 May 17:52:05 17:57:16 57° 71° (ENE) 18:02:29 437.470
GOMX 1 27 May 18:04:33 18:09:40 42° 70° (ENE) 18:14:42 467.674
HO-68 27 May 18:11:47 18:16:18 18° 53° (NE) 18:20:50 435.675
YUBILEINY 27 May 18:14:30 18:21:35 27° 294° (WNW) 18:28:44 435.215
AUBIESAT-1 27 May 18:18:34 18:19:51 11° 58° (ENE) 18:21:05 437.475
M-CUBED/EXP-1 PRIME 27 May 18:23:47 18:26:20 16° 61° (ENE) 18:28:46 437.505
PCSat 27 May 18:37:02 18:42:23 54° 55° (NE) 18:47:41 145.827
LilacSat-2 27 May 18:38:34 18:42:14 47° 261° (W) 18:45:55 437.200
CUBESAT XI-V 27 May 18:40:48 18:45:27 58° 287° (WNW) 18:50:04 437.345
NOAA 15 27 May 18:41:41 18:46:33 36° 263° (W) 18:51:27 137.62
O/OREOS (USA 219) 27 May 18:42:01 18:45:57 29° 59° (ENE) 18:49:51 437.305
NOAA 18 27 May 18:43:31 18:48:39 42° 261° (W) 18:53:49 137.9125
Cubesat XI-IV 27 May 18:45:50 18:50:57 48° 260° (W) 18:56:07 437.490
BEESAT 3 27 May 18:46:46 18:48:09 11° 37° (NE) 18:49:30 437.485
DOVE 4 27 May 18:53:52 18:59:00 59° 74° (ENE) 19:03:57 437.250
BRITE-PL 27 May 19:18:18 19:22:53 25° 268° (W) 19:27:32 437.365/2234.400
Cosmos 2504 27 May 19:18:30 19:24:45 31° 291° (WNW) 19:31:21 435.465 / 435.565
CANX-2 27 May 19:25:10 19:28:59 35° 71° (ENE) 19:32:51 2200.000
CINEMA 3 27 May 19:25:45 19:30:07 37° 71° (ENE) 19:34:17 145.822/145.860
SEEDS 27 May 19:28:26 19:31:51 25° 68° (ENE) 19:35:18 437.485
CUTE-I 27 May 19:34:01 19:37:41 19° 268° (W) 19:41:21 437.470
GOMX 1 27 May 19:43:09 19:47:48 28° 266° (W) 19:52:23 467.674
BEESAT 2 27 May 19:48:10 19:51:23 23° 45° (NE) 19:54:35 435.950
AUBIESAT-1 27 May 19:49:48 19:53:55 69° 252° (WSW) 19:57:46 437.475
CUTE 1.7 + AOD 2 27 May 19:52:03 19:56:11 63° 75° (ENE) 20:00:23 437.475
HO-68 27 May 19:55:52 20:03:01 85° 71° (ENE) 20:10:13 435.675
M-CUBED/EXP-1 PRIME 27 May 19:56:33 20:00:38 47° 255° (WSW) 20:04:25 437.505
STRAND 1 27 May 19:57:31 20:02:40 65° 102° (ESE) 20:07:46 437.568
RS-15 27 May 19:57:43 20:08:20 40° 325° (NW) 20:19:31 29.354- 29.394
Oscar 11 27 May 19:58:11 20:00:21 14° 63° (ENE) 20:02:31 145.826/435.025
ZACube-1 27 May 20:11:50 20:14:28 16° 65° (ENE) 20:17:05 437.345
COMPASS 1 27 May 20:13:50 20:17:53 56° 74° (ENE) 20:21:58 437.405
GONETS M04 27 May 20:14:32 20:18:59 15° 75° (ENE) 20:23:25
CUBEBUG 2 27 May 20:15:41 20:19:43 38° 71° (ENE) 20:23:41 437.445
AAUSAT CUBESAT 2 27 May 20:16:28 20:20:25 48° 73° (ENE) 20:24:26 437.432
AIST 1 27 May 20:20:06 20:22:53 17° 86° (E) 20:25:40
PRISM 27 May 20:20:33 20:23:32 19° 93° (E) 20:26:30 437.425
PCSat 27 May 20:21:16 20:25:23 22° 253° (WSW) 20:29:28 145.827
O/OREOS (USA 219) 27 May 20:21:27 20:25:17 28° 256° (WSW) 20:29:05 437.305
BEESAT 3 27 May 20:22:32 20:26:31 79° 56° (NE) 20:30:26 437.485
DOVE 4 27 May 20:33:32 20:36:59 18° 269° (W) 20:40:23 437.250
ISS 27 May 20:39:28 20:41:35 16° 133° (SE) 20:43:43 145.825
UWE-3 27 May 20:44:04 20:48:15 53° 74° (ENE) 20:52:22 435.000/436.395/437.385
DELFI C3 27 May 20:47:33 20:50:28 20° 67° (ENE) 20:53:23 145.870
FUNcube-1 27 May 20:48:27 20:52:20 36° 71° (ENE) 20:56:10 145.935
CANX-2 27 May 21:01:53 21:04:57 20° 267° (W) 21:08:04 2200.000
CINEMA 3 27 May 21:03:34 21:07:18 23° 266° (W) 21:10:57 145.822/145.860
SEEDS 27 May 21:03:52 21:07:28 28° 265° (W) 21:11:05 437.485
DANDE 27 May 21:15:54 21:19:19 13° 52° (NE) 21:22:40 436.750
CUSAT 1 27 May 21:20:51 21:26:35 22° 60° (ENE) 21:31:43 437.405
BEESAT 2 27 May 21:25:38 21:29:21 37° 243° (WSW) 21:33:01 435.950
CUTE 1.7 + AOD 2 27 May 21:31:09 21:32:28 11° 271° (W) 21:33:47 437.475
Oscar 11 27 May 21:31:44 21:35:58 60° 259° (W) 21:40:15 145.826/435.025
STRAND 1 27 May 21:37:59 21:41:19 18° 299° (WNW) 21:44:37 437.568
ZACube-1 27 May 21:46:21 21:50:25 45° 261° (W) 21:54:27 437.345
HO-68 27 May 21:47:05 21:51:33 17° 270° (W) 21:56:03 435.675
COMPASS 1 27 May 21:52:07 21:53:48 12° 270° (W) 21:55:30 437.405
CUBEBUG 2 27 May 21:53:18 21:56:28 19° 266° (W) 21:59:35 437.445
HUMSAT D 27 May 21:53:53 21:57:49 50° 73° (ENE) 22:01:47 437.325/437.525
AAUSAT CUBESAT 2 27 May 21:53:57 21:56:11 14° 269° (W) 21:58:26 437.432
PRISM 27 May 21:55:06 21:58:58 37° 290° (WNW) 22:02:48 437.425
AIST 1 27 May 21:55:55 22:00:06 43° 283° (WNW) 22:04:19
AIST 2 27 May 21:57:42 22:01:27 32° 48° (NE) 22:05:11 435.215
Cosmos 2499 27 May 21:58:47 22:05:25 41° 87° (E) 22:12:32 435.465 / 435.565
PHONESAT 2.4 27 May 21:59:56 22:02:18 19° 155° (SSE) 22:04:39 2401.200-2431.200
ANTELSAT 27 May 22:02:23 22:04:30 13° 91° (E) 22:06:38 437.575/2403.000
GONETS M04 27 May 22:05:29 22:14:16 79° 94° (E) 22:23:02
ISS 27 May 22:14:28 22:17:43 62° 329° (NNW) 22:20:58 145.825
RS-15 27 May 22:16:14 22:25:31 25° 360° (N) 22:35:03 29.354- 29.394
DELFI C3 27 May 22:21:33 22:25:07 32° 263° (W) 22:28:43 145.870
UWE-3 27 May 22:22:53 22:25:02 13° 269° (W) 22:27:08 435.000/436.395/437.385
FUNcube-1 27 May 22:25:42 22:28:42 19° 267° (W) 22:31:41 145.935
AISAT 27 May 22:33:52 22:37:14 21° 65° (ENE) 22:40:36 437.250
UKube-1 27 May 22:41:50 22:44:36 17° 63° (ENE) 22:47:23 .
DANDE 27 May 22:55:56 23:04:13 55° 74° (ENE) 23:11:44 436.750
UNISAT 6 27 May 22:56:05 23:00:17 52° 100° (E) 23:04:32 437.425
50 SAT 27 May 22:58:10 23:01:27 33° 71° (ENE) 23:04:47 437.505
CUSAT 1 27 May 23:01:58 23:09:49 82° 263° (W) 23:16:17 437.405
TIGRISAT 27 May 23:03:34 23:07:49 59° 101° (E) 23:12:06 435.000
ESTCUBE 1 27 May 23:11:18 23:15:47 70° 74° (ENE) 23:20:19 437.505/2401.250
CUBEBUG 1 27 May 23:25:26 23:29:50 69° 75° (ENE) 23:34:16 437.445
DX 1 27 May 23:26:59 23:31:18 60° 73° (ENE) 23:35:38 434.975-435.025
HUMSAT D 27 May 23:31:47 23:33:45 13° 269° (W) 23:35:43 437.325/437.525
VELOX 1 27 May 23:32:45 23:37:13 81° 75° (ENE) 23:41:42 145.980
PHONESAT 2.4 27 May 23:35:38 23:38:41 51° 171° (S) 23:41:45 2401.200-2431.200
AIST 2 27 May 23:36:20 23:39:49 26° 246° (WSW) 23:43:18 435.215
DUCHIFAT 1 27 May 23:36:55 23:40:16 23° 95° (E) 23:43:36 145.980
ANTELSAT 27 May 23:37:20 23:41:33 55° 287° (WNW) 23:45:49 437.575/2403.000
Cosmos 2499 27 May 23:51:52 23:58:33 38° 289° (WNW) 00:05:43 435.465 / 435.565
SPROUT 27 May 23:51:56 23:56:05 50° 72° (ENE) 00:00:15 437.525
ISS 27 May 23:52:11 23:54:38 19° 348° (NNW) 23:57:06 145.825
BUGSAT 1 27 May 23:55:00 23:57:35 16° 92° (E) 00:00:10 437.445
GONETS M04 28 May 00:05:22 00:12:04 24° 296° (WNW) 00:18:49
SO-50 28 May 00:07:07 00:11:41 40° 116° (ESE) 00:16:16 436.795
AISAT 28 May 00:09:16 00:13:27 39° 262° (W) 00:17:41 437.250
POPSAT HIP 1 28 May 00:14:40 00:18:52 68° 102° (ESE) 00:23:02 437.405
QB50P1 28 May 00:15:03 00:19:15 70° 102° (ESE) 00:23:25 145.935-145.965
UKube-1 28 May 00:16:05 00:20:16 48° 260° (W) 00:24:30 .
TISAT 1 28 May 00:16:05 00:19:37 27° 68° (ENE) 00:23:10 437.305
QB50P2 28 May 00:17:24 00:21:38 79° 103° (ESE) 00:25:49 145.880/145.840
POLYITAN 1 28 May 00:19:52 00:24:05 81° 104° (ESE) 00:28:17 437.675
RS-15 28 May 00:31:38 00:42:50 39° 34° (NNE) 00:54:06 29.354- 29.394
50 SAT 28 May 00:33:04 00:35:19 16° 267° (W) 00:37:34 437.505
NANOSAT C BR1 28 May 00:33:23 00:37:35 76° 285° (WNW) 00:41:45 145.865
UNISAT 6 28 May 00:34:04 00:36:36 16° 296° (WNW) 00:39:11 437.425
DANDE 28 May 00:39:18 00:46:44 36° 274° (W) 00:53:32 436.750
TIGRISAT 28 May 00:41:52 00:44:02 14° 297° (WNW) 00:46:14 435.000
CUSAT 1 28 May 00:46:29 00:50:26 15° 284° (WNW) 00:54:06 437.405
ESTCUBE 1 28 May 00:51:31 00:53:05 12° 271° (W) 00:54:38 437.505/2401.250
SWISSCUBE 28 May 01:04:05 01:07:38 21° 64° (ENE) 01:11:11 437.505
CUBEBUG 1 28 May 01:05:07 01:06:34 11° 271° (W) 01:08:03 437.445
DX 1 28 May 01:05:51 01:07:52 13° 269° (W) 01:09:53 434.975-435.025
ITUPSAT 1 28 May 01:10:18 01:13:54 22° 64° (ENE) 01:17:30 437.325
PHONESAT 2.4 28 May 01:12:12 01:15:17 54° 187° (S) 01:18:21 2401.200-2431.200
DUCHIFAT 1 28 May 01:12:19 01:15:59 30° 291° (WNW) 01:19:37 145.980
BUGSAT 1 28 May 01:29:22 01:33:09 39° 289° (WNW) 01:36:53 437.445
ISS 28 May 01:29:39 01:31:58 18° 8° (N) 01:34:16 145.825
SPROUT 28 May 01:29:55 01:32:19 15° 269° (W) 01:34:44 437.525
JAS-2 28 May 01:30:17 01:37:45 64° 100° (E) 01:44:22 435.910
BEESAT 28 May 01:32:50 01:37:09 35° 69° (ENE) 01:41:29 436.000
SO-50 28 May 01:47:56 01:52:17 30° 314° (NW) 01:56:37 436.795
TISAT 1 28 May 01:51:36 01:55:12 27° 264° (W) 01:58:48 437.305
POPSAT HIP 1 28 May 01:52:34 01:54:05 12° 298° (WNW) 01:55:36 437.405
QB50P1 28 May 01:53:03 01:54:27 11° 299° (WNW) 01:55:50 145.935-145.965
QB50P2 28 May 01:56:08 01:56:48 10° 300° (WNW) 01:57:27 145.880/145.840
POLYITAN 1 28 May 01:58:58 01:59:14 10° 300° (WNW) 01:59:30 437.675
Oscar 19 28 May 02:08:57 02:14:06 65° 102° (ESE) 02:19:12 437.125/150
YUBILEINY 28 May 02:25:02 02:32:52 35° 70° (ENE) 02:40:40 435.215
KKS-1 28 May 02:25:40 02:28:23 16° 63° (ENE) 02:31:04 437.445
Gurwin Techsat 1B 28 May 02:33:54 02:39:02 47° 99° (E) 02:44:08 435.225
SWISSCUBE 28 May 02:40:35 02:45:07 44° 261° (W) 02:49:41 437.505
MOZHAYETS 4 28 May 02:42:49 02:45:49 18° 64° (ENE) 02:48:49
RS-15 28 May 02:44:28 02:56:50 84° 240° (WSW) 03:09:07 29.354- 29.394
AO-7 28 May 02:46:37 02:49:52 13° 86° (E) 02:53:07 29.400- 29.500
ITUPSAT 1 28 May 02:46:56 02:51:27 43° 261° (W) 02:56:01 437.325
PHONESAT 2.4 28 May 02:49:12 02:51:42 22° 204° (SSW) 02:54:11 2401.200-2431.200
ITAMSAT 1 28 May 02:51:36 02:55:58 26° 95° (E) 03:00:20 435.822/435.867
STARS 28 May 03:00:08 03:03:11 19° 64° (ENE) 03:06:13 437.465
ISS 28 May 03:05:51 03:09:01 45° 28° (NNE) 03:12:10 145.825
BEESAT 28 May 03:11:06 03:14:59 25° 265° (W) 03:18:55 436.000
Cosmos 2504 28 May 03:15:12 03:21:21 22° 64° (ENE) 03:27:41 435.465 / 435.565
JAS-2 28 May 03:16:03 03:22:06 28° 301° (WNW) 03:27:43 435.910
Cosmos 2491 28 May 03:21:08 03:28:57 37° 85° (E) 03:36:46 435.465 / 435.565
Oscar 19 28 May 03:49:35 03:52:54 17° 299° (WNW) 03:56:11 437.125/150
KKS-1 28 May 04:00:07 04:04:30 55° 260° (W) 04:08:54 437.445
CUBESAT XI-V 28 May 04:09:07 04:12:03 17° 63° (ENE) 04:15:01 437.345
Gurwin Techsat 1B 28 May 04:14:29 04:18:41 24° 296° (WNW) 04:22:52 435.225
MOZHAYETS 4 28 May 04:18:09 04:22:34 51° 261° (W) 04:27:02
YUBILEINY 28 May 04:21:34 04:29:59 54° 270° (W) 04:38:25 435.215
ITAMSAT 1 28 May 04:30:42 04:35:33 40° 292° (WNW) 04:40:23 435.822/435.867
STARS 28 May 04:34:59 04:39:13 44° 261° (W) 04:43:27 437.465
AO-7 28 May 04:35:42 04:44:05 70° 105° (ESE) 04:52:25 29.400- 29.500
ISS 28 May 04:42:37 04:45:17 23° 225° (SW) 04:47:57 145.825
RS-15 28 May 04:59:00 05:07:28 22° 262° (W) 05:15:55 29.354- 29.394
Cosmos 2504 28 May 05:07:16 05:15:44 86° 266° (W) 05:24:36 435.465 / 435.565
Cosmos 2491 28 May 05:17:01 05:25:31 50° 285° (WNW) 05:34:03 435.465 / 435.565
HORYU 2 28 May 05:17:04 05:21:21 46° 100° (E) 05:25:36 437.375
AO-85 28 May 05:32:49 05:37:49 38° 115° (ESE) 05:42:46 145.980
STRAND 1 28 May 05:38:14 05:40:39 13° 58° (ENE) 05:43:03 437.568
CUBESAT XI-V 28 May 05:44:23 05:48:58 56° 260° (W) 05:53:37 437.345
BRITE-PL 28 May 05:45:27 05:48:00 14° 87° (E) 05:50:27 437.365/2234.400
CUTE-I 28 May 06:09:09 06:13:13 22° 93° (E) 06:17:15 437.470
LilacSat-2 28 May 06:12:07 06:14:36 17° 93° (E) 06:17:04 437.200
AO-7 28 May 06:29:19 06:36:12 30° 305° (NW) 06:43:06 29.400- 29.500
HORYU 2 28 May 06:54:32 06:57:34 18° 296° (WNW) 07:00:35 437.375
DOVE 4 28 May 06:54:33 06:56:26 13° 89° (E) 06:58:17 437.250
NOAA 15 28 May 06:55:33 07:00:54 81° 104° (ESE) 07:06:10 137.62
Cubesat XI-IV 28 May 07:02:03 07:07:23 64° 101° (ESE) 07:12:43 437.490
Cosmos 2504 28 May 07:02:47 07:07:57 18° 282° (WNW) 07:13:15 435.465 / 435.565
NOAA 18 28 May 07:04:21 07:09:51 78° 104° (ESE) 07:15:21 137.9125
PRISM 28 May 07:11:10 07:13:44 16° 63° (ENE) 07:16:17 437.425
AO-85 28 May 07:13:19 07:18:21 37° 312° (NW) 07:23:17 145.980
STRAND 1 28 May 07:14:00 07:19:06 84° 256° (WSW) 07:24:15 437.568
BRITE-PL 28 May 07:21:59 07:27:07 67° 286° (WNW) 07:31:46 437.365/2234.400
HO-68 28 May 07:25:05 07:28:53 15° 88° (E) 07:32:40 435.675
CUTE 1.7 + AOD 2 28 May 07:39:05 07:39:52 10° 89° (E) 07:40:39 437.475
GOMX 1 28 May 07:44:05 07:48:49 83° 282° (WNW) 07:53:11 467.674
LilacSat-2 28 May 07:45:34 07:49:00 33° 289° (WNW) 07:52:26 437.200
CUTE-I 28 May 07:48:20 07:53:31 50° 290° (WNW) 07:58:41 437.470
Cosmos 2499 28 May 07:48:42 07:54:07 18° 61° (ENE) 07:59:38 435.465 / 435.565
AIST 1 28 May 08:02:06 08:06:18 46° 78° (ENE) 08:10:27
GONETS M04 28 May 08:15:17 08:23:22 40° 72° (ENE) 08:31:22
DOVE 4 28 May 08:30:18 08:34:37 56° 287° (WNW) 08:38:43 437.250
NOAA 15 28 May 08:37:05 08:39:58 15° 302° (WNW) 08:42:51 137.62
SO-50 28 May 08:37:57 08:42:28 43° 49° (NE) 08:46:49 436.795
Cubesat XI-IV 28 May 08:43:20 08:46:57 19° 299° (WNW) 08:50:34 437.490
PRISM 28 May 08:44:39 08:48:39 47° 260° (W) 08:52:42 437.425
CANX-2 28 May 08:44:44 08:49:01 67° 102° (ESE) 08:53:17 2200.000
SEEDS 28 May 08:46:22 08:50:27 43° 98° (E) 08:54:30 437.485
NOAA 18 28 May 08:46:36 08:49:51 16° 302° (WNW) 08:53:06 137.9125
O/OREOS (USA 219) 28 May 08:55:01 08:58:57 29° 104° (ESE) 09:02:52 437.305
CINEMA 3 28 May 08:56:28 09:00:39 82° 103° (ESE) 09:04:48 145.822/145.860
ANTELSAT 28 May 09:02:23 09:04:36 14° 63° (ENE) 09:06:49 437.575/2403.000
AUBIESAT-1 28 May 09:02:26 09:05:44 73° 106° (ESE) 09:09:03 437.475
M-CUBED/EXP-1 PRIME 28 May 09:09:43 09:13:00 68° 290° (WNW) 09:16:14 437.505
HO-68 28 May 09:10:20 09:17:34 85° 106° (ESE) 09:24:46 435.675
CUTE 1.7 + AOD 2 28 May 09:11:54 09:16:10 70° 285° (WNW) 09:20:26 437.475
Oscar 11 28 May 09:18:43 09:22:13 23° 94° (E) 09:25:41 145.826/435.025
PCSat 28 May 09:19:20 09:24:25 43° 112° (ESE) 09:29:31 145.827
COMPASS 1 28 May 09:31:17 09:35:31 81° 284° (WNW) 09:39:44 437.405
